Location: Beddau
(51.5575°N, 3.3561°W)
Time: 21:32:05
(UTC+00:00)

Daily predictions for brighter satellites

Satellite Brightness Start Highest point End
(mag) Time Altitude Azimuth Time Altitude Azimuth Time Altitude Azimuth
Cosmos 1844 Rocket 3.1 18:22:26 10° NNW 18:27:48 45° NE 18:33:07 10° ESE
Okean-O 2.7 18:25:28 10° SSE 18:29:47 56° ENE 18:34:09 10° N
USA 308 3.0 18:26:48 10° WSW 18:31:05 76° NNW 18:35:23 10° ENE
CSL-04 Rocket 4.1 18:26:08 10° SE 18:31:21 44° ENE 18:36:32 10° N
Cosmos 1271 Rocket 2.9 18:28:54 10° NNW 18:32:40 76° W 18:36:24 10° S
CSL-04 Debris 4.5 18:27:29 10° SE 18:32:40 47° ENE 18:37:54 10° N
Cosmos 1503 Rocket 4.2 18:29:27 10° NNW 18:34:33 52° ENE 18:39:36 10° SE
H-2A R/B 2.8 18:32:10 10° N 18:36:12 55° WNW 18:40:12 10° SSW
SKYMED 2 3.6 18:32:56 10° NNE 18:37:18 87° E 18:41:40 10° SSW
HJ-1C 3.8 18:34:31 10° SE 18:37:39 40° ENE 18:40:47 10° N
MOS 1 Rocket 3.7 18:33:18 10° NNE 18:38:20 83° WNW 18:43:36 10° SSW
PSLV R/B 4.4 18:34:27 10° NNE 18:38:21 39° E 18:42:09 10° SSE
Cosmos 1844 4.1 18:34:01 10° NNW 18:39:37 47° NE 18:45:07 10° SE
Cosmos 2278 4.3 18:34:10 10° SW 18:39:47 61° NW 18:45:28 10° NNE
Cosmos 1805 Rocket 4.4 18:37:53 10° SSW 18:42:13 57° WNW 18:46:36 10° N
CZ-4B R/B 1.1 18:39:23 10° NNE 18:42:27 88° W 18:45:31 10° SSW
Cosmos 1470 Rocket 4.1 18:38:43 10° SSE 18:42:50 38° E 18:46:57 10° NNE
Cosmos 2278 Rocket 3.7 18:40:23 10° NNW 18:44:32 20° NNE 18:48:36 10° E
Cosmos 2360 Rocket 3.0 18:40:15 10° SSE 18:45:02 29° ESE 18:49:50 10° NE
Cosmos 1602 3.8 18:42:34 10° S 18:46:23 57° E 18:50:16 10° NNE
Ariane Rocket 4.2 18:42:58 10° ESE 18:46:56 24° ENE 18:50:56 10° N
Meteor 1-19 Rocket 4.3 18:41:37 10° N 18:47:37 75° ENE 18:53:25 10° SSE
Meteor 2-4 Rocket 4.0 18:46:26 10° N 18:52:07 52° ENE 18:57:53 10° SSE
Okean O Rocket 4.3 18:48:38 10° SSW 18:52:09 24° W 18:55:43 10° NW
Cosmos 1703 Rocket 4.2 18:48:23 10° N 18:52:27 35° ENE 18:56:28 10° SE
Cosmos 1500 3.8 18:50:09 10° SSE 18:53:30 32° E 18:56:53 10° NNE
Cosmos 2333 Rocket 3.6 18:52:04 10° SE 18:55:29 17° E 18:58:57 10° ENE
Cosmos 1689 Rocket 2.3 18:53:02 10° NNE 18:55:48 42° E 18:58:34 10° S
SL-08 RB Rocket 3.8 18:53:57 10° SSE 18:58:22 58° ENE 19:02:53 10° N
ERBS 2.2 18:56:04 10° WSW 18:59:24 84° NNW 19:02:18 13° ENE
Cosmos 1980 Rocket 3.4 18:55:29 10° WSW 19:00:54 44° NW 19:06:22 10° NNE
Cosmos 1943 Rocket 4.3 19:00:50 10° N 19:02:52 12° NNE 19:04:55 10° NE
Aureole 2 Rocket 1.7 19:00:43 10° NNW 19:03:16 73° WSW 19:05:45 10° SSE
Cosmos 1933 Rocket 3.9 18:59:38 10° SSE 19:03:44 41° E 19:07:52 10° NNE
Cosmos 1862 Rocket 3.9 19:00:09 10° NNW 19:04:39 74° W 19:09:07 10° S
Cosmos 1666 Rocket 3.9 19:00:55 10° SSW 19:05:13 68° WNW 19:09:34 10° N
Cosmos 2242 Rocket 3.7 19:06:08 10° N 19:10:37 57° ENE 19:15:01 10° SSE
Cosmos 2327 Rocket 4.5 19:05:24 10° S 19:11:43 80° E 19:17:59 10° NNE
Resurs 01 Rocket 3.2 19:12:41 16° ENE 19:13:33 17° ENE 19:16:23 10° NNE
Cosmos 1461 3.6 19:09:55 10° SW 19:14:38 65° NW 19:19:21 10° NE
Cosmos 2322 Rocket 2.1 19:09:06 10° SSW 19:14:42 75° ESE 19:20:20 10° NNE
Abrixas rocket 2.3 19:12:59 10° WSW 19:15:21 37° S 19:16:07 28° SE
FALCON 9 DEB 3.1 19:16:04 10° W 19:19:15 65° N 19:20:46 27° ENE
Nadezhda 3 Rocket 4.3 19:13:05 10° NNW 19:19:27 76° W 19:25:48 10° S
Helios 1A Rocket 3.1 19:16:42 10° S 19:20:45 73° WSW 19:24:48 10° NNW
YAOGAN 1 3.7 19:17:26 10° S 19:21:36 46° W 19:25:48 10° NNW
COSMO-SKYMED 1 4.3 19:21:19 10° N 19:25:17 35° WNW 19:29:13 10° SW
COSMOS 2428 3.9 19:21:19 10° SSE 19:32:11 - NE 19:24:51 20° ESE
SJ-6B 3.2 19:22:30 15° SE 19:25:37 45° ENE 19:29:30 10° N
ASTEX 1 4.1 19:21:52 10° NNE 19:26:14 31° E 19:30:11 12° SE
Cosmos 2154 Rocket 4.1 19:22:33 10° SSW 19:28:46 81° W 19:35:01 10° N
GP-B 3.0 19:25:07 10° S 19:29:32 76° E 19:34:00 10° N
Cosmos 1295 Rocket 4.5 19:23:19 10° S 19:29:35 89° E 19:35:48 10° N
Meteor 1-14 Rocket 4.1 19:24:23 10° S 19:29:57 81° E 19:35:31 10° NNE
MOS 1 4.5 19:25:33 12° SE 19:30:38 50° ENE 19:36:07 10° N
FALCON 9 DEB 3.0 19:28:30 10° WNW 19:31:41 67° N 19:32:42 38° ENE
Cosmos 2219 Rocket 3.0 19:27:37 10° SSE 19:32:12 27° ESE 19:36:48 10° NE
Meteor 1-11 Rocket 4.2 19:27:44 10° SSE 19:32:52 36° E 19:37:56 10° NNE
MetOp-A 4.1 19:29:21 10° SSE 19:34:41 73° ENE 19:40:03 10° NNW
Cosmos 1992 Rocket 4.0 19:31:33 10° SSW 19:36:48 85° WNW 19:42:04 10° NNE
OBJECT-B 1.1 19:36:26 41° E 19:36:51 44° ENE 19:39:57 10° N
SJ 16-02 2.3 19:34:58 10° N 19:38:52 29° NE 19:39:35 28° ENE
ARGOS 4.0 19:33:44 10° S 19:39:00 52° W 19:44:20 10° NNW
SL-16 R/B 2.6 19:33:46 10° SW 19:39:24 64° NW 19:45:04 10° NNE
Okean 1-7 3.0 19:35:24 10° N 19:39:49 89° ENE 19:44:10 10° S
Resurs 1-3 4.1 19:38:47 30° ESE 19:40:10 39° ENE 19:44:16 10° N
SeaSat 1 2.3 19:35:29 10° NE 19:40:27 73° ESE 19:45:22 10° SSW
Cosmos 1066 Rocket 4.4 19:36:18 10° N 19:41:52 51° ENE 19:45:41 20° SE
Meteor 1-13 Rocket 4.3 19:36:21 10° N 19:42:20 69° ENE 19:48:11 10° SSE
SAR-Lupe-4 4.3 19:39:48 10° N 19:43:20 55° WNW 19:46:50 10° SSW
USA 234 3.6 19:39:53 21° ENE 19:44:00 43° SE 19:50:10 10° SSW
CZ-4 R/B 4.0 19:42:06 10° SW 19:45:09 22° W 19:48:15 10° NW
CZ-2C R/B 2.7 19:42:16 10° NNE 19:47:49 85° WNW 19:53:13 10° SSW
Cosmos 2369 Rocket 4.3 19:45:52 10° N 19:48:11 12° NNE 19:50:31 10° NE
USA 305 3.1 19:45:10 10° W 19:49:26 62° N 19:50:56 37° ENE
H-2A R/B 4.0 19:44:55 10° SSW 19:49:45 32° W 19:54:36 10° NNW
BREEZE-M DEB (TANK) 2.2 19:47:22 10° W 19:49:51 66° S 19:51:10 39° ESE
IRS-1A Rocket 4.2 19:46:43 14° SSE 19:51:34 72° ENE 19:57:06 10° NNW
Cosmos 2322 3.9 19:46:34 10° S 19:52:00 46° ESE 19:57:26 10° NE
DMSP B5D2-2 3.9 19:48:23 10° NNE 19:53:38 76° ESE 19:58:51 10° S
SL-4 R/B 1.7 19:50:16 10° W 19:53:44 60° SSW 19:54:12 53° SSE
USA 186 2.1 19:56:42 45° WNW 19:56:42 45° WNW 19:58:52 10° NNW
Cosmos 1869 Rocket 3.5 19:53:40 10° S 19:57:58 61° E 20:02:20 10° NNE
Cosmos 2237 4.3 19:53:02 10° SSW 19:58:47 80° WNW 20:04:34 10° NNE
Gbstr 26 Del rocket 3.3 19:54:14 10° W 19:58:53 87° N 20:00:59 39° E
SL-8 Rocket 3.9 19:54:17 10° S 20:00:30 78° E 20:06:43 10° NNE
ERS-2 3.8 19:57:24 10° N 20:00:46 35° WNW 20:04:06 10° SW
USA 307 3.1 19:56:31 10° WNW 20:00:46 62° N 20:01:49 45° ENE
FALCON 9 DEB 3.0 19:58:58 10° WNW 20:01:56 74° NW 20:01:56 74° NW
ATLAS CENTAUR R/B 0.9 19:58:54 10° SW 20:02:32 89° SE 20:03:10 59° NE
Cosmos 1378 3.1 20:00:21 10° N 20:03:53 62° ENE 20:03:53 62° ENE
USA 306 3.1 19:59:53 10° WNW 20:04:08 63° N 20:05:03 49° ENE
FALCON 9 DEB 3.1 20:01:00 10° WNW 20:03:59 70° NW 20:03:59 70° NW
Cosmos 1666 2.8 20:06:23 10° SSW 20:10:06 70° WNW 20:13:51 10° N
USA 308 3.0 20:07:07 10° WNW 20:11:23 64° N 20:12:00 56° NE
Cosmos 1844 Rocket 3.9 20:06:30 10° NW 20:11:40 39° WSW 20:16:47 10° S
Cosmos 1777 Rocket 4.3 20:09:57 10° NNW 20:15:09 65° WSW 20:18:16 24° S
NOSS 3-3 (A) 4.5 20:08:07 10° NW 20:15:21 69° NE 20:18:42 38° ESE
NOSS 3-3 (C) 4.5 20:08:13 10° NW 20:15:26 69° NE 20:18:47 38° ESE
Cosmos 2366 rocket 3.9 20:09:15 10° S 20:15:33 81° E 20:21:57 10° NNE
Landsat 7 4.4 20:17:05 39° NE 20:17:05 39° NE 20:21:03 10° N
Okean 3 3.6 20:13:46 10° NNW 20:18:02 74° W 20:19:31 39° S
SPOT 3 Rocket 3.5 20:18:37 53° ESE 20:19:31 62° ENE 20:24:42 10° N
ARIANE 5 R/B 4.2 20:21:37 23° NNE 20:21:37 23° NNE 20:24:00 10° N
Cosmos 2333 4.1 20:16:54 10° SSW 20:22:33 80° ESE 20:28:18 10° NNE
Cosmos 2221 Rocket 3.5 20:18:54 10° N 20:23:09 71° ENE 20:23:09 71° ENE
Cosmos 2341 Rocket 4.5 20:18:09 10° SSW 20:24:23 61° WNW 20:30:36 10° N
Ariane Rocket 3.3 20:22:15 23° S 20:25:29 67° WSW 20:30:36 10° NNW
Cosmos 2360 Rocket 2.7 20:23:06 10° SW 20:28:41 59° NW 20:34:20 10° NNE
SPOT 1/Viking Rocket 4.2 20:29:56 40° NE 20:29:56 40° NE 20:34:09 10° N
Cosmos 2278 Rocket 2.1 20:24:02 10° NNW 20:29:43 68° ENE 20:30:28 61° E
Cosmos 990 Rocket 4.2 20:29:20 10° NNW 20:34:05 52° NE 20:34:05 52° NE
Cosmos 1727 Rocket 3.9 20:28:15 10° NNW 20:34:27 83° W 20:37:44 30° S
Meteor 2-20 4.3 20:29:38 10° N 20:35:46 89° W 20:38:13 39° S
ERBS 4.1 20:32:50 10° WNW 20:35:08 29° NW 20:35:08 29° NW
Cosmos 2333 Rocket 2.1 20:33:13 10° SSW 20:38:54 84° ESE 20:44:41 10° NNE
Cosmos 1821 Rocket 4.0 20:41:55 59° E 20:41:55 59° E 20:47:42 10° NNE
Cosmos 2218 Rocket 4.3 20:36:26 10° SSW 20:42:48 67° WNW 20:49:12 10° N
Cosmos 1000 Rocket 4.4 20:41:23 10° N 20:47:41 77° ENE 20:48:32 66° SE
Cosmos 1943 Rocket 3.5 20:43:57 10° NNW 20:48:24 27° NE 20:48:24 27° NE
Resurs 01 Rocket 2.0 20:50:14 61° NW 20:50:14 61° NW 20:53:58 10° NNW
MetOp-B 4.0 20:50:11 76° NE 20:50:11 76° NE 20:55:21 10° NNW
Lacrosse 4 Rocket 4.0 20:50:36 10° SW 20:50:57 12° SW 20:50:57 12° SW
Cosmos 2322 Rocket 4.1 20:54:33 10° W 20:59:20 28° NW 21:04:09 10° NNE
Cosmos 2123 Rocket 4.1 20:54:33 10° N 21:00:10 60° NE 21:00:10 60° NE
USA 245 4.3 21:07:21 73° NNE 21:07:21 73° NNE 21:13:02 10° NNW
Cosmos 1937 Rocket 4.3 21:02:59 10° NNW 21:06:40 43° N 21:06:40 43° N
COSMOS 2428 3.3 21:03:19 10° SSW 21:14:01 14° NNE 21:14:46 10° NNE
OBJECT-B 3.9 21:09:30 14° W 21:09:30 14° W 21:11:08 10° NW
Cosmos 2219 Rocket 2.5 21:10:12 10° SW 21:15:44 63° NW 21:21:22 10° NNE
SJ 16-02 2.8 21:13:26 10° NW 21:16:35 35° WNW 21:16:35 35° WNW
SeaSat 1 4.4 21:13:29 10° NNE 21:17:36 27° NW 21:21:43 10° W
Terra 3.8 21:21:49 21° N 21:21:49 21° N 21:23:32 10° N
USA 234 3.1 21:27:15 82° N 21:27:24 83° NNW 21:33:57 10° WSW
USA 281 3.8 21:34:30 44° NNE 21:34:30 44° NNE 21:39:46 10° NNW
Cosmos 2369 Rocket 3.7 21:29:10 10° NNW 21:32:29 26° NNE 21:32:29 26° NNE
ATLAS CENTAUR R/B 4.3 21:39:06 10° WNW 21:39:24 11° WNW 21:39:24 11° WNW
Cosmos 2278 Rocket 4.1 22:08:48 10° NW 22:12:20 24° W 22:12:20 24° W
Cosmos 2333 Rocket 4.1 22:19:09 10° W 22:23:54 26° NW 22:28:41 10° NNE
Cosmos 1943 Rocket 4.0 22:27:27 10° NNW 22:29:55 27° NW 22:29:55 27° NW
